Погода в Буртасах

Россия / Чувашская Республика     55°29′44″N   46°51′29″E
темп.,
°C
ветер,
м/с
пор.,
м/с
влажн.,
%
обл.,
%
осадки,
мм/ч
давл.,
гПа
погр.,
м
14 апреля, ср
ср1400:00+7ю33727 0.0 103027
03:00+5ю227473 0.0 103018
06:00+6ююв22755 0.0 102930
09:00+13ююв365411 0.0 1028326
12:00+18ююв46405 0.0 1026993
15:00+19ююв46455 0.0 10241223
18:00+15ююв34695 0.0 102364
21:00+11ююв38895 0.0 1023128
15 апреля, чт
чт1500:00+10ююв36910 0.0 1022100
03:00+9ю22910 0.0 102117
06:00+9ю22910 0.0 102134
09:00+15ююз23630 0.0 1020457
12:00+18юз234530 0.0 10191501
15:00+18зюз223895 0.0 10181835
18:00+15зсз22535 0.0 101833
21:00+12ссв1159100 0.0 101910
16 апреля, пт
пт1600:00+9св5109033 0.0 1020287
03:00+7св6118973 0.0 1021363
06:00+6св51286100 0.0 1023456
09:00+8всв697398 0.0 1024640
12:00+11всв576272 0.0 10241030
15:00+13всв565453 0.0 10241271
18:00+10св48575 0.0 1025489
21:00+6св411615 0.0 1027305
17 апреля, сб
сб1700:00+4св411675 0.0 1027249
03:00+2св39715 0.0 1028195
06:00+2св39690 0.0 1029233
09:00+7св57465 0.0 1029717
12:00+10св56365 0.0 10291366
15:00+11св56365 0.0 10281632
18:00+9св37515 0.0 1028212
21:00+5св23685 0.0 102937
18 апреля, вс
вс1800:00+4св35735 0.0 103073
03:00+2св37790 0.0 1031137
06:00+2св38800 0.0 1032221
09:00+7св45550 0.0 1032704
12:00+10св34465 0.0 10311317
15:00+11св344211 0.0 10311703
18:00+9св365577 0.0 1031215
21:00+5всв35725 0.0 1032106